Satellite-Ground Cal/Val Site Overpasses Predictions

Prediction of Satellite NPP Overpassing Cal/Val Site: Antarctic Dome C

Ground Cal/Val Site Location: Latitude: -75.10, Longitude: 123.35; Satellite-Ground Site NADIR distance within 100 km.

Table of predicted overpasses for the next 14.0 days since TLE Epoch: 9/17/2022
Interval Starting Time Ending Time Minimum Distance Time Minimum Distance (km)
1 09/18/2022 15:08:43 09/18/2022 15:08:44 09/18/2022 15:08:44 99.89
2 09/19/2022 14:49:39 09/19/2022 14:50:08 09/19/2022 14:49:53 11.68
3 09/21/2022 07:32:29 09/21/2022 07:32:58 09/21/2022 07:32:43 2.69
4 09/24/2022 14:55:57 09/24/2022 14:56:26 09/24/2022 14:56:12 25.19
5 09/25/2022 14:37:14 09/25/2022 14:37:30 09/25/2022 14:37:22 82.13
6 09/26/2022 07:38:48 09/26/2022 07:39:15 09/26/2022 07:39:01 37.92
7 09/27/2022 07:20:02 09/27/2022 07:20:22 09/27/2022 07:20:12 71.97
8 09/29/2022 15:02:17 09/29/2022 15:02:40 09/29/2022 15:02:29 62.21
